Location: Karcze
(52.0945°N, 22.4786°E)
Time: 20:30:07
(UTC+00:00)

Transit 2A Rocket - Pass Details

Date: 30 July 2021
Orbit: 586 x 917 km, 66.7° (Epoch: 27 September)

Event Time Altitude Azimuth Distance (km) Brightness Sun altitude
Rises 15:18:07 0° 261° (W) 2,921 9.3 26.4°
Reaches altitude 10° 15:20:38 10° 274° (W) 2,060 9.1 26.0°
Maximum altitude 15:24:33 26° 332° (NNW) 1,348 6.8 25.4°
Drops below altitude 10° 15:28:47 10° 28° (NNE) 2,236 7.2 24.7°
Sets 15:31:39 0° 41° (NE) 3,227 7.9 24.3°
